Regional Weather Roundup
Issued by NWS

Home | Current Version | Previous Version | Graphics & Text | Print | Product List | Glossary On
Versions: 1 2 3 4 5 6 7 8 9 10 11 12 13 14 15 16 17 18 19 20 21 22 23 24 25 26 27 28 29 30 31 32 33 34 35 36 37 38 39 40 41 42 43 44 45 46 47 48 49 50
000
ASUS43 KMPX 232210
RWRMN
WEATHER ROUNDUP FOR MINNESOTA
NATIONAL WEATHER SERVICE TWIN CITIES/CHANHASSEN MN
500 PM CDT SAT JUL 23 2016


NOTE: "FAIR" INDICATES FEW OR NO CLOUDS BELOW 12,000 FEET WITH NO
SIGNIFICANT WEATHER AND/OR OBSTRUCTIONS TO VISIBILITY. N/A MEANS
CURRENT SKY AND/OR WEATHER CONDITIONS ARE NOT AVAILABLE.

MNZ060>063-068>070-232300-
   Twin Cities Metro

CITY           SKY/WX    TMP DP  RH WIND       PRES   REMARKS
TWIN CITIES    LGT RAIN  72  70  93 NE7       29.86R FOG
ST PAUL        RAIN      71  69  93 N10       29.85S FOG
CRYSTAL        LGT RAIN  72  68  87 E7        29.84F
BLAINE         LGT RAIN  72  72 100 SE10      29.84F
LAKEVILLE      PTSUNNY   75  72  88 SE5       29.85R
EDEN PRAIRIE   LGT RAIN  74  71  91 NE6       29.85S
LAKEVILLE      PTSUNNY   75  72  88 SE5       29.85R
SOUTH ST PAUL  LGT RAIN  71  70  96 NE3       29.86R
LAKE ELMO      RAIN      70  68  94 N8G16     29.88S
$$
MNZ001>005-007-008-013>017-022>024-027-028-232300-
   Northwest Minnesota

CITY           SKY/WX    TMP DP  RH WIND       PRES   REMARKS
BEMIDJI        CLOUDY    79  68  69 SE12G18   29.76S
HALLOCK        MOSUNNY   75  68  78 SE6       29.74R
ROSEAU         MOSUNNY   73  66  78 E12       29.72F
WARROAD        CLOUDY    73  70  88 E13       29.74F
THIEF RVR FALL LGT RAIN  72  70  94 E14       29.71F
CROOKSTON      CLOUDY    73  70  88 N10       29.75R THUNDER
FOSSTON        SUNNY     79  66  65 S15       29.74F
DETROIT LAKES  MOSUNNY   79  70  73 S14       29.76S
MOORHEAD       MOSUNNY   82  70  65 S10G20    29.71F
PARK RAPIDS    CLOUDY    79  69  71 S13       29.77F
MAHNOMEN       FAIR      80  70  70 S12       29.73F
$$
MNZ006-009>011-018-025>026-232300-
   North Central Minnesota

CITY           SKY/WX    TMP DP  RH WIND       PRES   REMARKS
BAUDETTE       LGT RAIN  73  70  90 E8        29.76F
FLAG ISLAND    LGT RAIN  68  66  94 NE14      29.75F
INTL FALLS     CLOUDY    76  64  66 SE8       29.83F
WASKISH        CLOUDY    79  70  73 SE8       29.75F
BIG FORK       CLOUDY    75  66  73 SE6       29.85S
LONGVILLE      MOSUNNY   81  66  61 SE6       29.78F
GRAND RAPIDS   CLOUDY    76  68  76 SE13      29.85F
ORR            CLOUDY    75  61  60 SE6       29.85S
COOK           CLOUDY    73  63  68 SE3       29.88S
WALKER         FAIR      76  68  76 SE6       29.78S
$$
MNZ012-019>021-037-232300-
   Northeast Minnesota

CITY           SKY/WX    TMP DP  RH WIND       PRES   REMARKS
DULUTH         CLOUDY    68  62  81 E10       29.90S
ELY            CLOUDY    73  61  64 SE7       29.89S
HIBBING        CLOUDY    72  64  76 S8        29.87F
EVELETH        CLOUDY    73  62  69 S8        29.89F
DULUTH HARBOR  CLOUDY    64  61  88 NE12      29.89S
TWO HARBORS    CLOUDY    72  63  73 E8        29.89S
SILVER BAY     CLOUDY    68  61  77 NE9G16    29.91R
GRAND MARAIS     N/A     63  56  78 NE8       29.90S
G MARAIS ARPRT CLOUDY    72  57  60 E6        29.96S
$$
MNZ029>031-032-039>041-046>048-054>057-064-232300-
   West Central Minnesota

CITY           SKY/WX    TMP DP  RH WIND       PRES   REMARKS
FERGUS FALLS   MOSUNNY   81  72  74 S16       29.75S
MORRIS         CLOUDY    81  72  74 SE16G25   29.74F
ALEXANDRIA     SUNNY     78  69  73 SE21G29   29.79F
ELBOW LAKE     FAIR      79  72  78 E18       29.75F
WADENA         MOSUNNY   77  70  78 S16G22    29.76F
GLENWOOD       SUNNY     77  70  78 SE16G22   29.80F
APPLETON       MOSUNNY   82  73  74 SE14      29.74F
BENSON         MOSUNNY   81  70  69 SE10G17   29.76F
ORTONVILLE     MOSUNNY   82  73  74 SE16      29.73F
MADISON        SUNNY     82  75  78 SE16      29.74F
WILLMAR        FAIR      81  73  78 SE18      29.78F
$$
MNZ033>034-036-042>043-049>051-058-059-232300-
   Central Minnesota

CITY           SKY/WX    TMP DP  RH WIND       PRES   REMARKS
ST CLOUD       MOSUNNY   75  71  87 SE14      29.81F
SAUK CENTRE    FAIR      77  70  79 SE16      29.80F
PAYNESVILLE    CLOUDY    77  73  87 E13       29.81F
AITKIN         CLOUDY    75  66  73 SE6       29.84S
PINE RIVER     CLOUDY    77  70  78 SE15      29.81F
BRAINERD       CLOUDY    77  69  76 SE9       29.80F
STAPLES        MOSUNNY   79  68  69 SE10      29.78F
LONG PRAIRIE   FAIR      77  68  73 SE15G21   29.80F
LITTLE FALLS   CLOUDY    77  70  78 S10       29.80F
LITCHFIELD     MOSUNNY   79  75  89 E16       29.81F
BUFFALO        PTSUNNY   74  69  85 E7        29.84F
MAPLE LAKE     CLOUDY    76  71  85 SE8       29.83F
HUTCHINSON     PTSUNNY   77  73  87 E12       29.82F
$$
MNZ037-044-045-052-053-232300-
   East Central Minnesota

CITY           SKY/WX    TMP DP  RH WIND       PRES   REMARKS
PRINCETON      CLOUDY    75  70  83 SE7       29.83F
MORA           CLOUDY    66  64  94 SE9       29.87F FOG
CAMBRIDGE      CLOUDY    72  64  78 SE6       29.82F
RUSH CITY      CLOUDY    69  66  90 S3        29.86S
MOOSE LAKE     CLOUDY    72  68  88 SW6       29.85S
HINCKLEY       CLOUDY    70  68  94 SE5       29.86F
CLOQUET        CLOUDY    70  63  78 E3        29.89F
MCGREGOR       CLOUDY    72  70  94 S8        29.87S
$$
MNZ071>073-080-081-089-090-097-098-232300-
   Southwest Minnesota

CITY           SKY/WX    TMP DP  RH WIND       PRES   REMARKS
MONTEVIDEO     MOSUNNY   82  75  78 SE16      29.77F
GRANITE FALLS  SUNNY     86  78  78 E10G17    29.76F HX  98
CANBY          MOSUNNY   87  79  76 SE15      29.75F HX 102
MARSHALL       MOSUNNY   89  79  72 SE12      29.75F HX 104
REDWOOD FALLS  MOSUNNY   84  74  71 SE13      29.76F HX  91
OLIVIA         PTSUNNY   79  73  83 E10G17    29.78F
PIPESTONE      SUNNY     90  73  58 S9        29.77F HX  98
WINDOM         CLOUDY    88  75  66 S10       29.80F HX  97
WORTHINGTON    PTSUNNY   87  78  74 MISG      29.80S HX 100
JACKSON        PTSUNNY   86  72  62 S9        29.82R HX  92
TRACY          PTSUNNY   87  80  79 SE8       29.77F HX 102
SLAYTON        MOSUNNY   88  76  68 SE10      29.79F HX  98
$$
MNZ065>067-074>077-082>085-091>093-232300-
   South Central Minnesota

CITY           SKY/WX    TMP DP  RH WIND       PRES   REMARKS
MANKATO        CLOUDY    81  72  74 SE16      29.82F
NEW ULM        CLOUDY    82  77  83 SE8       29.79F HX  91
ST JAMES       CLOUDY    81  72  74 SE12      29.80F
FAIRMONT       CLOUDY    82  73  74 S12       29.81R
GLENCOE        CLOUDY    76  74  93 NE6       29.83F
FARIBAULT      PTSUNNY   81  72  74 SE14G21   29.85R
OWATONNA       MOSUNNY   77  70  78 S15       29.85R
WASECA         CLOUDY    77  72  83 S13       29.88R
ALBERT LEA     CLOUDY    75  73  94 SE17      29.84F
$$
MNZ078>079-086>088-094>096-232300-
   Southeast Minnesota

CITY           SKY/WX    TMP DP  RH WIND       PRES   REMARKS
ROCHESTER      CLOUDY    73  71  93 S16G24    29.86F
RED WING       CLOUDY    77  70  78 SE10G17   29.82R
STANTON        CLOUDY    79  70  73 S13G21    29.82R
DODGE CENTER   PTSUNNY   73  72  94 S15G25    29.86R
WINONA         CLOUDY    72  68  88 SE13      29.86F
AUSTIN         CLOUDY    73  70  88 SE13G20   29.84F
PRESTON        CLOUDY    69  67  92 S14G20    29.90R
$$
ABBREVIATIONS USED IN REMARKS
   TC - TEMPERATURES IN CELSIUS
  WCI - WIND CHILL INDEX
   HX - HEAT INDEX
  VSB - VISIBILITY
$$



USA.gov is the U.S. government's official web portal to all federal, state and local government web resources and services.